{"data":{"norad_id":60606,"epoch":"2026-05-25T00:52:58.561824Z","epoch_age_seconds":78762,"freshness":"FRESH","line1":"1 60606U 24151A   26145.03678891 -.00000366  00000+0  00000+0 0  9995","line2":"2 60606   1.3719 271.1302 0000629 165.5370 297.4249  1.00269802  6529","mean_motion":1.00269802,"eccentricity":6.29e-5,"inclination_deg":1.3719,"raan_deg":271.1302,"arg_perigee_deg":165.537,"mean_anomaly_deg":297.4249,"bstar":0,"rev_number":652,"period_min":1436.1253052041,"perigee_km":35784.49868063,"apogee_km":35789.803073845,"semimajor_km":42165.287877237,"source":"CELESTRAK","updated_at":"2026-05-25T13:38:14.147495Z"}}